STARLINK-34634, 65079

Orbit data source: Space-Track

STARLINK-34634, 65079 is a payload satellite owned by SpaceX/Seattle (US) in LEO that was launched on Mon, 04 Aug 2025 UTC via an FALCON 9 launch vehicle from the Air Force Eastern Test Range (AFETR). Payload-class satellites include a variety of spacecraft equipped with specific instruments for various scientific and technological missions. These include communications satellites like Starlink; space stations such as the ISS; scientific satellites like the Hubble; Earth observation satellites from companies like Planet Labs, Umbra, and HawkEye 360; GPS; miniature CubeSats for education and research; and military/defense satellites.

Loading next visibility...
Identifier
65079, 2025-167B
Orbit
LEO
Country
Flag of USUS
Related business
Manufacturer
SpaceX/Seattle
Mission
Operational Commercial Communications
Bus & Motor
STARLINK V2MO, Unknown motor
Mass
575 kg wet, ~530 kg dry
Launch date (UTC)
2025-08-04 (9 months ago)
Launch vehicle
FALCON 9
Launch site
Air Force Eastern Test Range (AFETR)
Object type
Payload
Rocket body
Debris
Shape & HBR
Box + 2 Pan, 17.7 m
Radar Cross Section
36.964 m², Large (>1 m²)

Expand to show TLE details & history
Last TLE update: 10 hours ago

TLE from 10 hours ago
0 STARLINK-34634
1 65079U 25167B   26127.27370844  .00035241  00000-0  11947-2 0  9990
2 65079  53.1589 112.1522 0001444  84.2837 275.8329 15.30242876 42481
Epoch: 2026-05-07T06:34Z
TLE epoch observation values (Epoch: 2026-05-07T06:34:08.409Z)
Latitude
0.00004°
Longitude
148.49499°
Altitude
475.886 km
Speed
7.629 km/s
True Right ascension
07h 28m 36s
True Declination
0° 00' 00"
Sunlit
Object was in daylight at epoch
Visualization orbit readout
Latitude
Unknown
Longitude
Unknown
Altitude
Unknown
Speed
Unknown
Apparent Right ascension
Unknown
Apparent Declination
Unknown
Sunlit
N/A
Visualization observer readout
Local Sidereal Time
00:46:32
Azimuth
Unknown
Elevation
Unknown
Doppler factor
Unknown
Orbital elements
Apogee altitude
476.333 km
Perigee altitude
474.354 km
Semi-major axis
6,853.481 km
Eccentricity
0.00014
Inclination
53.1589°
RAAN
112.1522°
Arg. of periapsis
84.2837°
True anomaly
275.81644°
Mean anomaly
275.8329°
Eccentric anomaly
275.82467°
Mean motion
3.8254 °/min
Orbital period
94.11 mins
BSTAR
0.0011947
Loading maneuver chart data...
Computing Atmospheric mass density...
Loading historical data...
Loading historical data...
Loading historical data...
Loading historical data...
Loading historical data...
Loading historical data...
Loading historical data...

Documentation

Showing up to 5 results
|